Flag for France Weather past 2 weeks in Auxerre, France

Now
68 °F

Broken clouds.


Feels Like: 68 °F
Forecast: 47 / 66 °F
Wind: 7 mph from North

Location: Troyes Airport

Current Time: May 24, 2015 at 1:41:28 PM

Latest Report: May 24, 2015 at 1:00 PM


Visibility: N/A

Pressure: 30.09 "Hg

Humidity: 60%

Dew point: 54 °F

Location of AuxerreLocation

Historic Weather in Auxerre — Graph

°F

Auxerre temperature yesterday

Maximum temperature yesterday: 70 °F (at 1:30 PM)
Minimum temperature yesterday: 45 °F (at 2:30 AM)
Average temperature yesterday: 58 °F

Past Weeks' High & Low Weather Summary

 TemperatureHumidityPressure
High82 °F (May 11, 6:30 PM)100% (May 11, 3:00 AM)30.36 "Hg (May 11, 3:00 AM)
Low37 °F (May 21, 2:00 AM)37% (May 21, 6:30 PM)29.77 "Hg (May 18, 6:00 PM)
Average57 °F76%30.12 "Hg
* Reported May 9 12:00 Noon — May 24 12:30 PM, Auxerre, Weather by CustomWeather, © 2015

Note: Actual official high and low records may vary slightly from our data, if they occured in-between our weather recording intervals... More about our weather records

Advertising

Auxerre weather history for previous 24 hours

 ConditionsComfort  
Time TempWeatherWind HumidityBarometerVisibility
12:30 PM
Sun, May 24
66 °FScattered clouds.7 mph64%30.09 "HgN/A
12:00 PM66 °FScattered clouds.7 mph68%30.09 "HgN/A
11:30 AM64 °FScattered clouds.8 mph68%30.12 "HgN/A
11:00 AM63 °FPassing clouds.7 mph73%30.09 "Hg6 mi
10:30 AM63 °FPassing clouds.6 mph73%30.09 "HgN/A
10:00 AM61 °FPassing clouds.6 mph77%30.12 "HgN/A
9:30 AM59 °FScattered clouds.7 mph82%30.12 "HgN/A
9:00 AM57 °FPartly sunny.6 mph88%30.12 "Hg5 mi
8:30 AM57 °FClear.6 mph88%30.12 "Hg4 mi
8:00 AM55 °FFog.6 mph94%30.09 "Hg3 mi
7:30 AM55 °FFog.6 mph94%30.09 "Hg2 mi
7:00 AM55 °FFog.6 mph94%30.09 "Hg2 mi
6:30 AM55 °FFog.6 mph94%30.09 "Hg2 mi
6:00 AM55 °FFog.6 mph94%30.09 "Hg1 mi
5:30 AM55 °FFog.6 mph94%30.09 "Hg1 mi
5:00 AM55 °FFog.7 mph100%30.09 "Hg1 mi
4:30 AM55 °FFog.6 mph94%30.09 "Hg1 mi
4:00 AM55 °FFog.7 mph94%30.09 "Hg2 mi
3:30 AM55 °FFog.6 mph94%30.09 "Hg2 mi
3:00 AM55 °FFog.6 mph94%30.09 "Hg2 mi
2:30 AM55 °FFog.6 mph94%30.09 "Hg2 mi
2:00 AM55 °FFog.7 mph94%30.09 "Hg3 mi
1:30 AM55 °FFog.8 mph94%30.12 "Hg3 mi
1:00 AM55 °FClear.8 mph94%30.12 "Hg4 mi
12:30 AM55 °FClear.7 mph94%30.12 "Hg4 mi
12:00 AM54 °FClear.8 mph94%30.12 "Hg6 mi
11:30 PM
Sat, May 23
54 °FClear.7 mph94%30.12 "Hg6 mi
11:00 PM57 °FClear.5 mph82%30.12 "Hg10 mi
10:30 PM61 °FClear.8 mph77%30.12 "Hg10 mi
10:00 PM63 °FSunny.5 mph73%30.12 "Hg10 mi
9:30 PM64 °FSunny.5 mph68%30.09 "Hg10 mi
9:00 PM64 °FPassing clouds.6 mph64%30.09 "HgN/A
8:30 PM66 °FSunny.6 mph60%30.09 "Hg10 mi
8:00 PM66 °FPassing clouds.6 mph60%30.09 "HgN/A
7:30 PM68 °FSunny.8 mph53%30.09 "Hg10 mi
7:00 PM68 °FSunny.10 mph49%30.09 "Hg10 mi
6:30 PM68 °FPassing clouds.10 mph53%30.09 "HgN/A
6:00 PM68 °FSunny.12 mph53%30.09 "Hg10 mi
5:30 PM68 °FPartly sunny.12 mph49%30.09 "HgN/A
5:00 PM68 °FPartly sunny.12 mph53%30.09 "HgN/A
4:30 PM68 °FBroken clouds.12 mph49%30.09 "HgN/A
4:00 PM70 °FMore clouds than sun.13 mph46%30.09 "HgN/A
3:30 PM68 °FSunny.13 mph49%30.09 "Hg10 mi
3:00 PM70 °FPassing clouds.12 mph43%30.09 "HgN/A
2:30 PM70 °FPassing clouds.10 mph40%30.12 "HgN/A
2:00 PM70 °FPassing clouds.10 mph46%30.12 "HgN/A
1:30 PM70 °FPassing clouds.12 mph43%30.12 "HgN/A
1:00 PM68 °FPassing clouds.12 mph46%30.12 "HgN/A
Weather by CustomWeather, © 2015

See weather overviewHow to use our weather pages